Location: Observatory
(52.1446°N, 0.4624°W)
Time: 09:56:05
(UTC+01:00)

Amateur Radio Satellites - All Passes

Search period start: 20 October 2017 09:26
Search period end: 21 October 2017 09:26
Location: Observatory, 52.1446°N, 0.4624°W

Satellite Date Start Highest point End Downlink Frequencies (MHz)
Time Altitude Azimuth
SEEDS 20 Oct 09:27:10 09:31:03 38° 293° (WNW) 09:34:55 437.485
Oscar 11 20 Oct 09:33:23 09:37:37 52° 100° (E) 09:41:49 .
FO-29 20 Oct 09:37:34 09:42:38 46° 263° (W) 09:48:09 435.910
TIGRISAT 20 Oct 09:38:07 09:42:44 64° 71° (ENE) 09:47:26 435.000
YUBILEINY 20 Oct 09:41:38 09:50:04 59° 91° (E) 09:58:35 435.215
XW-2A 20 Oct 09:48:58 09:51:52 27° 294° (WNW) 09:54:43 145.665 - 145.685
DELFI C3 20 Oct 09:50:04 09:53:01 20° 91° (E) 09:55:58 145.870
AAUSAT CUBESAT 2 20 Oct 09:52:27 09:56:23 43° 291° (WNW) 10:00:18 437.432
AO-7 20 Oct 09:58:13 09:59:58 11° 354° (N) 10:01:44 .
AO-73 20 Oct 10:10:09 10:14:27 52° 290° (WNW) 10:18:38 145.935
CUBEBUG 2 20 Oct 10:15:02 10:18:28 20° 302° (WNW) 10:21:50 437.445
AIST 2D 20 Oct 10:19:58 10:22:40 21° 64° (ENE) 10:25:22 435.315
HO-68 20 Oct 10:21:05 10:27:13 32° 308° (NW) 10:33:21 435.675
NO-84 20 Oct 10:27:34 10:31:10 35° 218° (SW) 10:34:29 435.350 FM
EO-79 20 Oct 10:27:36 10:30:09 16° 56° (NE) 10:32:42 145.935-145.965
POLYITAN 1 20 Oct 10:31:56 10:34:43 17° 57° (ENE) 10:37:29 437.675
ZACube-1 20 Oct 10:32:13 10:36:09 31° 296° (WNW) 10:39:58 437.345
PRISM 20 Oct 10:37:12 10:41:13 66° 257° (WSW) 10:45:17 437.425
EO-88 20 Oct 10:40:26 10:43:47 33° 97° (E) 10:47:05 145.990 - 145.960
Max Valier Satellite 20 Oct 10:49:07 10:52:47 57° 101° (E) 10:56:23 145.860
PCSat 20 Oct 10:50:12 10:55:18 40° 321° (NW) 11:00:27 145.827
QB50P2 20 Oct 10:51:13 10:54:46 26° 62° (ENE) 10:58:19 145.880/145.840
nSIGHT-1 20 Oct 10:52:52 10:55:08 18° 144° (SE) 10:57:24 .
UWE-3 20 Oct 10:54:41 10:57:15 15° 306° (NW) 10:59:47 435.000/436.395/437.385
NANOSAT C BR1 20 Oct 10:55:03 10:58:26 23° 61° (ENE) 11:01:50 145.865
SO-50 20 Oct 10:59:48 11:03:04 19° 347° (NNW) 11:06:22 436.795
UNISAT 6 20 Oct 11:00:58 11:04:48 25° 268° (W) 11:08:41 437.425
DUCHIFAT 1 20 Oct 11:05:50 11:09:22 26° 62° (ENE) 11:12:54 145.980
Oscar 11 20 Oct 11:10:06 11:13:28 23° 299° (WNW) 11:16:49 .
TIGRISAT 20 Oct 11:16:24 11:19:51 20° 271° (W) 11:23:20 435.000
BUGSAT 1 20 Oct 11:17:20 11:18:59 12° 53° (NE) 11:20:39 437.445
RS-15 20 Oct 11:18:24 11:29:13 43° 250° (WSW) 11:39:32 29.354- 29.394
Oscar 19 20 Oct 11:20:02 11:21:27 11° 46° (NE) 11:22:51 437.125/150
ISS 20 Oct 11:24:03 11:26:49 26° 149° (SSE) 11:29:36 437.550
DELFI C3 20 Oct 11:24:12 11:28:01 47° 290° (WNW) 11:31:50 145.870
LO-87 20 Oct 11:31:36 11:34:22 20° 92° (E) 11:37:07 145.935 - 145.965
ESTCUBE 1 20 Oct 11:31:42 11:34:41 17° 89° (E) 11:37:39 437.505/2401.250
YUBILEINY 20 Oct 11:39:09 11:47:17 42° 295° (WNW) 11:55:30 435.215
AO-7 20 Oct 11:45:28 11:49:17 14° 22° (NNE) 11:53:05 .
Gurwin Techsat 1B 20 Oct 11:47:12 11:49:47 14° 48° (NE) 11:52:23 435.225
AIST 2D 20 Oct 11:52:23 11:55:40 37° 263° (W) 11:58:57 435.315
EO-79 20 Oct 12:01:03 12:05:20 84° 253° (WSW) 12:09:39 145.935-145.965
POLYITAN 1 20 Oct 12:05:41 12:09:59 76° 257° (WSW) 12:14:18 437.675
BEESAT 3 20 Oct 12:07:16 12:09:48 16° 114° (ESE) 12:12:22 437.485
HO-68 20 Oct 12:11:09 12:12:48 11° 332° (NNW) 12:14:27 435.675
M-CUBED/EXP-1 PRIME 20 Oct 12:13:39 12:16:08 20° 57° (ENE) 12:18:36 437.505
EO-88 20 Oct 12:14:19 12:17:19 24° 295° (WNW) 12:20:17 145.990 - 145.960
SPROUT 20 Oct 12:17:29 12:19:35 13° 87° (E) 12:21:42 437.525
Max Valier Satellite 20 Oct 12:23:50 12:26:13 17° 300° (WNW) 12:28:35 145.860
QB50P2 20 Oct 12:26:15 12:30:21 44° 261° (W) 12:34:29 145.880/145.840
nSIGHT-1 20 Oct 12:27:49 12:30:58 58° 163° (SSE) 12:34:08 .
NANOSAT C BR1 20 Oct 12:29:45 12:33:53 50° 260° (W) 12:38:04 145.865
PCSat 20 Oct 12:36:22 12:40:09 19° 346° (NNW) 12:43:58 145.827
DUCHIFAT 1 20 Oct 12:40:46 12:44:50 44° 261° (W) 12:48:57 145.980
SO-50 20 Oct 12:41:48 12:45:04 19° 12° (NNE) 12:48:23 436.795
BUGSAT 1 20 Oct 12:49:24 12:53:35 72° 73° (ENE) 12:57:50 437.445
Oscar 19 20 Oct 12:54:42 12:59:39 49° 66° (ENE) 13:04:37 437.125/150
VELOX 1 20 Oct 12:58:47 13:02:20 23° 92° (E) 13:05:53 145.980
ISS 20 Oct 12:59:44 13:03:00 71° 167° (SSE) 13:06:16 437.550
AO-85 20 Oct 13:01:43 13:03:16 12° 111° (ESE) 13:04:51 145.980
LO-87 20 Oct 13:04:30 13:07:57 40° 291° (WNW) 13:11:22 145.935 - 145.965
ESTCUBE 1 20 Oct 13:07:30 13:11:58 69° 289° (WNW) 13:16:25 437.505/2401.250
Gurwin Techsat 1B 20 Oct 13:23:31 13:28:45 60° 69° (ENE) 13:34:00 435.225
BEESAT 2 20 Oct 13:26:00 13:29:30 29° 120° (ESE) 13:33:03 435.950
ITAMSAT 1 20 Oct 13:30:30 13:32:30 12° 46° (NE) 13:34:31 435.822/435.867
AO-7 20 Oct 13:32:32 13:39:38 33° 47° (NE) 13:46:44 .
EO-79 20 Oct 13:40:24 13:41:48 11° 275° (W) 13:43:12 145.935-145.965
BEESAT 3 20 Oct 13:42:50 13:46:51 80° 313° (NW) 13:50:55 437.485
YUBILEINY 20 Oct 13:43:23 13:47:13 13° 324° (NW) 13:51:04 435.215
POLYITAN 1 20 Oct 13:45:52 13:46:31 10° 276° (W) 13:47:11 437.675
M-CUBED/EXP-1 PRIME 20 Oct 13:47:19 13:50:26 37° 254° (WSW) 13:53:31 437.505
50 SAT 20 Oct 13:51:26 13:53:59 20° 94° (E) 13:56:29 437.505
SPROUT 20 Oct 13:51:45 13:56:06 84° 283° (WNW) 14:00:24 437.525
nSIGHT-1 20 Oct 14:03:59 14:07:11 83° 184° (S) 14:10:24 .
DX 1 20 Oct 14:05:47 14:09:34 27° 95° (E) 14:13:19 434.975-435.025
PCSat 20 Oct 14:21:53 14:25:37 18° 12° (NNE) 14:29:21 145.827
SO-50 20 Oct 14:22:18 14:26:39 41° 36° (NE) 14:31:03 436.795
BUGSAT 1 20 Oct 14:26:56 14:29:26 15° 272° (W) 14:31:57 437.445
UKube-1 20 Oct 14:30:18 14:34:10 31° 96° (E) 14:38:00 .
Oscar 19 20 Oct 14:34:41 14:39:11 30° 266° (W) 14:43:43 437.125/150
VELOX 1 20 Oct 14:34:45 14:39:03 50° 291° (WNW) 14:43:20 145.980
ISS 20 Oct 14:36:10 14:39:26 77° 190° (S) 14:42:43 437.550
AO-85 20 Oct 14:39:01 14:42:55 84° 135° (SE) 14:47:01 145.980
ESTCUBE 1 20 Oct 14:46:08 14:47:59 12° 308° (NW) 14:49:49 437.505/2401.250
BEESAT 2 20 Oct 15:03:10 15:07:06 48° 320° (NW) 15:11:03 435.950
Gurwin Techsat 1B 20 Oct 15:04:44 15:09:05 25° 268° (W) 15:13:28 435.225
MOZHAYETS 4 20 Oct 15:05:25 15:07:51 14° 86° (E) 15:10:14
ITAMSAT 1 20 Oct 15:05:51 15:10:54 53° 67° (ENE) 15:15:59 435.822/435.867
BEESAT 3 20 Oct 15:21:49 15:25:00 22° 335° (NNW) 15:28:11 437.485
50 SAT 20 Oct 15:23:22 15:26:23 33° 292° (WNW) 15:29:23 437.505
AO-7 20 Oct 15:23:23 15:31:42 83° 251° (WSW) 15:40:04 .
SPROUT 20 Oct 15:29:06 15:31:20 14° 305° (NW) 15:33:33 437.525
ITUPSAT 1 20 Oct 15:31:59 15:35:39 21° 91° (E) 15:39:16 437.325
nSIGHT-1 20 Oct 15:40:16 15:43:19 42° 203° (SSW) 15:46:23 .
DX 1 20 Oct 15:41:46 15:45:52 41° 294° (WNW) 15:49:59 434.975-435.025
BEESAT 20 Oct 15:47:19 15:51:29 28° 94° (E) 15:55:36 436.000
DOVE 4 20 Oct 15:58:44 16:01:56 21° 59° (ENE) 16:05:16 437.250
SO-50 20 Oct 16:02:49 16:07:12 45° 236° (SW) 16:11:37 436.795
PCSat 20 Oct 16:05:28 16:10:33 38° 37° (NE) 16:15:35 145.827
UKube-1 20 Oct 16:06:15 16:10:13 36° 295° (WNW) 16:14:11 .
ISS 20 Oct 16:12:44 16:15:41 31° 208° (SSW) 16:18:38 437.550
AO-85 20 Oct 16:20:32 16:23:49 24° 334° (NNW) 16:27:16 145.980
MOZHAYETS 4 20 Oct 16:41:03 16:45:40 87° 292° (WNW) 16:50:15
BEESAT 2 20 Oct 16:42:56 16:45:43 17° 342° (NNW) 16:48:31 435.950
ITAMSAT 1 20 Oct 16:46:13 16:50:39 28° 267° (W) 16:55:08 435.822/435.867
CUBESAT XI-V 20 Oct 16:51:58 16:56:08 33° 95° (E) 17:00:18 437.345
BEESAT 3 20 Oct 17:01:50 17:03:55 14° 358° (N) 17:05:59 437.485
KAITUO 1B 20 Oct 17:04:41 17:07:03 16° 60° (ENE) 17:09:24 145.475/437.950
XW-2F 20 Oct 17:05:45 17:08:33 20° 62° (ENE) 17:11:21 145.980 - 146.000
ITUPSAT 1 20 Oct 17:09:07 17:13:53 62° 290° (WNW) 17:18:36 437.325
LilacSat-2 20 Oct 17:10:17 17:13:26 25° 64° (ENE) 17:16:36 437.200
CUTE-I 20 Oct 17:14:19 17:19:00 33° 60° (ENE) 17:23:43 437.470
XW-2D 20 Oct 17:17:30 17:20:45 28° 65° (ENE) 17:24:01 145.860 - 145.880
nSIGHT-1 20 Oct 17:17:53 17:18:58 11° 221° (SW) 17:20:05 .
NUDT-PHONESAT 20 Oct 17:18:31 17:21:19 21° 63° (ENE) 17:24:08 437.300
AO-7 20 Oct 17:19:32 17:25:44 23° 272° (W) 17:31:58 .
HO-68 20 Oct 17:21:09 17:27:01 28° 50° (NE) 17:32:55 435.675
BEESAT 20 Oct 17:24:51 17:29:27 46° 293° (WNW) 17:33:59 436.000
XW-2B 20 Oct 17:30:40 17:34:09 35° 68° (ENE) 17:37:38 145.730 - 145.750
DOVE 4 20 Oct 17:35:06 17:39:15 57° 260° (W) 17:43:39 437.250
YUBILEINY 20 Oct 17:48:50 17:52:33 13° 35° (NE) 17:56:17 435.215
PCSat 20 Oct 17:48:53 17:54:13 58° 239° (WSW) 17:59:31 145.827
XW-2C 20 Oct 17:53:35 17:57:21 62° 72° (ENE) 18:01:06 145.795 - 145.815
AO-85 20 Oct 18:03:11 18:05:37 15° 359° (N) 18:08:09 145.980
CUBEBUG 2 20 Oct 18:05:48 18:09:06 19° 57° (ENE) 18:12:27 437.445
KKS-1 20 Oct 18:08:45 18:13:10 53° 101° (E) 18:17:33 437.445
MOZHAYETS 4 20 Oct 18:19:28 18:22:10 16° 306° (NW) 18:24:51
BEESAT 2 20 Oct 18:22:41 18:24:56 14° 6° (N) 18:27:12 435.950
ZACube-1 20 Oct 18:24:13 18:25:23 11° 51° (NE) 18:26:33 437.345
CUBESAT XI-V 20 Oct 18:29:19 18:33:33 37° 295° (WNW) 18:37:45 437.345
KAITUO 1B 20 Oct 18:36:57 18:40:38 59° 258° (WSW) 18:44:20 145.475/437.950
XW-2F 20 Oct 18:38:45 18:42:24 46° 261° (W) 18:46:04 145.980 - 146.000
BEESAT 3 20 Oct 18:39:53 18:42:53 20° 22° (NNE) 18:45:50 437.485
CUTE 1.7 + AOD 2 20 Oct 18:40:55 18:44:59 48° 70° (ENE) 18:49:04 437.475
STARS 20 Oct 18:41:41 18:46:02 49° 100° (E) 18:50:20 437.465
UWE-3 20 Oct 18:43:27 18:47:11 24° 61° (ENE) 18:50:56 435.000/436.395/437.385
LilacSat-2 20 Oct 18:44:01 18:47:35 36° 263° (W) 18:51:09 437.200
SEEDS 20 Oct 18:48:21 18:52:13 37° 67° (ENE) 18:56:04 437.485
ITUPSAT 1 20 Oct 18:48:46 18:50:49 13° 310° (NW) 18:52:51 437.325
NUDT-PHONESAT 20 Oct 18:51:24 18:54:57 43° 261° (W) 18:58:31 437.300
XW-2D 20 Oct 18:51:27 18:54:52 31° 264° (W) 18:58:18 145.860 - 145.880
XW-2A 20 Oct 18:52:40 18:55:24 23° 65° (ENE) 18:58:08 145.665 - 145.685
CUTE-I 20 Oct 18:53:45 18:58:54 49° 261° (W) 19:04:06 437.470
Oscar 11 20 Oct 18:59:58 19:02:03 13° 54° (NE) 19:04:09 .
XW-2B 20 Oct 19:05:16 19:08:25 24° 266° (W) 19:11:35 145.730 - 145.750
HO-68 20 Oct 19:06:51 19:14:03 86° 250° (WSW) 19:21:19 435.675
AAUSAT CUBESAT 2 20 Oct 19:12:33 19:16:11 31° 66° (ENE) 19:19:50 437.432
STRAND 1 20 Oct 19:19:21 19:22:35 17° 87° (E) 19:25:49 437.568
XW-2C 20 Oct 19:29:45 19:31:55 15° 271° (W) 19:34:05 145.795 - 145.815
AO-73 20 Oct 19:34:38 19:38:45 34° 66° (ENE) 19:42:52 145.935
PCSat 20 Oct 19:35:15 19:36:30 11° 259° (W) 19:37:44 145.827
CUBEBUG 2 20 Oct 19:40:28 19:45:10 78° 256° (WSW) 19:49:59 437.445
AO-85 20 Oct 19:44:05 19:47:28 22° 23° (NNE) 19:51:03 145.980
YUBILEINY 20 Oct 19:44:21 19:52:33 41° 64° (ENE) 20:00:45 435.215
KKS-1 20 Oct 19:45:50 19:49:26 24° 300° (WNW) 19:53:02 437.445
ZACube-1 20 Oct 19:56:14 20:00:44 57° 70° (ENE) 20:05:14 437.345
BEESAT 2 20 Oct 20:00:26 20:03:57 26° 30° (NNE) 20:07:24 435.950
BEESAT 3 20 Oct 20:17:09 20:21:08 65° 44° (NE) 20:25:04 437.485
CUTE 1.7 + AOD 2 20 Oct 20:17:46 20:21:05 22° 268° (W) 20:24:23 437.475
STARS 20 Oct 20:18:29 20:22:08 25° 299° (WNW) 20:25:45 437.465
UWE-3 20 Oct 20:18:43 20:23:19 57° 260° (W) 20:27:57 435.000/436.395/437.385
O/OREOS (USA 219) 20 Oct 20:20:10 20:23:17 18° 101° (E) 20:26:26 437.305
SEEDS 20 Oct 20:24:24 20:27:59 27° 266° (W) 20:31:35 437.485
XW-2A 20 Oct 20:24:53 20:27:59 32° 263° (W) 20:31:05 145.665 - 145.685
Oscar 11 20 Oct 20:33:10 20:37:30 80° 74° (ENE) 20:41:51 .
FO-29 20 Oct 20:38:57 20:44:12 23° 88° (E) 20:49:49 435.910
DELFI C3 20 Oct 20:40:30 20:43:42 25° 64° (ENE) 20:46:55 145.870
AAUSAT CUBESAT 2 20 Oct 20:47:56 20:51:37 32° 264° (W) 20:55:20 437.432
STRAND 1 20 Oct 20:57:16 21:02:29 87° 287° (WNW) 21:07:39 437.568
HO-68 20 Oct 20:57:38 21:02:50 21° 273° (W) 21:08:04 435.675
AO-73 20 Oct 21:10:44 21:14:57 36° 264° (W) 21:19:11 145.935
CUBEBUG 2 20 Oct 21:20:42 21:22:36 12° 276° (W) 21:24:31 437.445
EO-88 20 Oct 21:23:05 21:26:25 34° 68° (ENE) 21:29:46 145.990 - 145.960
AO-85 20 Oct 21:24:10 21:28:33 70° 44° (NE) 21:33:18 145.980
Max Valier Satellite 20 Oct 21:32:45 21:36:26 58° 71° (ENE) 21:40:08 145.860
ZACube-1 20 Oct 21:33:49 21:37:21 22° 270° (W) 21:40:53 437.345
BEESAT 2 20 Oct 21:38:00 21:42:03 72° 232° (SW) 21:46:03 435.950
YUBILEINY 20 Oct 21:41:14 21:49:50 61° 268° (W) 21:58:26 435.215
BEESAT 3 20 Oct 21:55:22 21:58:18 20° 244° (WSW) 22:01:11 437.485
O/OREOS (USA 219) 20 Oct 21:57:36 22:02:11 71° 301° (WNW) 22:06:48 437.305
Oscar 11 20 Oct 22:11:53 22:14:13 14° 273° (W) 22:16:33 .
LO-87 20 Oct 22:12:53 22:15:37 20° 63° (ENE) 22:18:22 145.935 - 145.965
PRISM 20 Oct 22:14:27 22:15:55 12° 87° (E) 22:17:23 437.425
DELFI C3 20 Oct 22:14:38 22:18:18 38° 262° (W) 22:22:00 145.870
FO-29 20 Oct 22:23:14 22:29:57 89° 278° (W) 22:37:27 435.910
ESTCUBE 1 20 Oct 22:36:08 22:40:04 31° 64° (ENE) 22:44:02 437.505/2401.250
STRAND 1 20 Oct 22:37:32 22:41:00 18° 307° (NW) 22:44:26 437.568
UNISAT 6 20 Oct 22:45:44 22:50:18 51° 99° (E) 22:54:44 437.425
EO-88 20 Oct 22:57:11 23:00:09 23° 266° (W) 23:03:09 145.990 - 145.960
TIGRISAT 20 Oct 23:00:29 23:05:08 65° 102° (ESE) 23:09:38 435.000
AO-85 20 Oct 23:05:05 23:08:40 23° 243° (WSW) 23:12:26 145.980
Max Valier Satellite 20 Oct 23:08:24 23:10:37 15° 271° (W) 23:12:49 145.860
AIST 2D 20 Oct 23:13:01 23:14:12 11° 88° (E) 23:15:23 435.315
SPROUT 20 Oct 23:15:30 23:18:48 22° 60° (ENE) 23:22:06 437.525
BEESAT 2 20 Oct 23:17:57 23:19:02 11° 250° (WSW) 23:20:06 435.950
RS-15 20 Oct 23:38:19 23:47:20 25° 99° (E) 23:56:17 29.354- 29.394
O/OREOS (USA 219) 20 Oct 23:39:31 23:42:28 17° 323° (NW) 23:45:26 437.305
YUBILEINY 20 Oct 23:40:13 23:44:44 15° 292° (WNW) 23:49:16 435.215
EO-79 20 Oct 23:42:04 23:43:24 11° 85° (E) 23:44:44 145.935-145.965
LO-87 20 Oct 23:45:22 23:48:48 41° 262° (W) 23:52:17 145.935 - 145.965
POLYITAN 1 20 Oct 23:46:25 23:48:16 12° 86° (E) 23:50:07 437.675
PRISM 20 Oct 23:47:40 23:51:49 90° 108° (ESE) 23:55:57 437.425
VELOX 1 21 Oct 00:01:00 00:05:05 40° 66° (ENE) 00:09:13 145.980
QB50P2 21 Oct 00:05:40 00:08:55 21° 91° (E) 00:12:08 145.880/145.840
NANOSAT C BR1 21 Oct 00:08:50 00:11:49 18° 90° (E) 00:14:47 145.865
FO-29 21 Oct 00:09:11 00:14:23 25° 306° (NW) 00:20:02 435.910
ESTCUBE 1 21 Oct 00:12:36 00:16:49 38° 263° (W) 00:21:02 437.505/2401.250
DUCHIFAT 1 21 Oct 00:19:18 00:22:29 20° 91° (E) 00:25:39 145.980
UNISAT 6 21 Oct 00:22:55 00:26:45 26° 299° (WNW) 00:30:29 437.425
50 SAT 21 Oct 00:25:30 00:27:48 18° 62° (ENE) 00:30:08 437.505
TIGRISAT 21 Oct 00:37:53 00:41:23 21° 302° (WNW) 00:44:49 435.000
AIST 2D 21 Oct 00:44:21 00:47:49 68° 286° (WNW) 00:51:16 435.315
SPROUT 21 Oct 00:50:09 00:54:22 55° 259° (W) 00:58:37 437.525
Oscar 19 21 Oct 01:03:15 01:04:06 10° 82° (E) 01:04:57 437.125/150
DX 1 21 Oct 01:06:18 01:10:28 48° 68° (ENE) 01:14:40 434.975-435.025
EO-79 21 Oct 01:15:34 01:19:52 84° 104° (ESE) 01:24:08 145.935-145.965
POLYITAN 1 21 Oct 01:20:23 01:24:42 88° 284° (WNW) 01:28:58 437.675
PRISM 21 Oct 01:24:20 01:26:29 14° 305° (NW) 01:28:39 437.425
BEESAT 21 Oct 01:24:38 01:26:38 13° 49° (NE) 01:28:38 436.000
UKube-1 21 Oct 01:29:41 01:33:52 54° 69° (ENE) 01:38:05 .
Gurwin Techsat 1B 21 Oct 01:35:07 01:38:11 15° 86° (E) 01:41:15 435.225
VELOX 1 21 Oct 01:37:51 01:41:39 28° 265° (W) 01:45:29 145.980
QB50P2 21 Oct 01:40:49 01:45:00 53° 291° (WNW) 01:49:08 145.880/145.840
NANOSAT C BR1 21 Oct 01:43:42 01:47:55 59° 289° (WNW) 01:52:05 145.865
RS-15 21 Oct 01:45:31 01:57:46 74° 124° (SE) 02:09:54 29.354- 29.394
DUCHIFAT 1 21 Oct 01:54:18 01:58:27 53° 290° (WNW) 02:02:34 145.980
50 SAT 21 Oct 01:56:49 01:59:54 38° 261° (W) 02:03:00 437.505
BUGSAT 1 21 Oct 02:00:37 02:04:50 56° 101° (E) 02:08:58 437.445
MOZHAYETS 4 21 Oct 02:11:59 02:15:51 27° 62° (ENE) 02:19:44
CUBESAT XI-V 21 Oct 02:26:49 02:28:24 12° 51° (NE) 02:29:59 437.345
Oscar 19 21 Oct 02:39:21 02:44:28 63° 102° (ESE) 02:49:33 437.125/150
DX 1 21 Oct 02:43:26 02:46:54 23° 267° (W) 02:50:22 434.975-435.025
ITUPSAT 1 21 Oct 02:43:40 02:48:16 46° 66° (ENE) 02:52:53 437.325
EO-79 21 Oct 02:52:31 02:55:04 16° 304° (NW) 02:57:36 145.935-145.965
M-CUBED/EXP-1 PRIME 21 Oct 02:53:10 02:56:34 47° 107° (ESE) 03:00:10 437.505
POLYITAN 1 21 Oct 02:57:32 02:59:51 14° 305° (NW) 03:02:09 437.675
BEESAT 21 Oct 02:58:47 03:03:30 62° 70° (ENE) 03:08:16 436.000
UKube-1 21 Oct 03:06:58 03:10:12 21° 268° (W) 03:13:28 .
Gurwin Techsat 1B 21 Oct 03:13:35 03:18:58 85° 106° (ESE) 03:24:18 435.225
ITAMSAT 1 21 Oct 03:14:58 03:16:47 12° 84° (E) 03:18:35 435.822/435.867
AO-7 21 Oct 03:19:12 03:25:34 23° 89° (E) 03:31:53 .
NANOSAT C BR1 21 Oct 03:22:07 03:22:45 10° 309° (NW) 03:23:23 145.865
NO-84 21 Oct 03:23:28 03:26:41 21° 134° (SE) 03:29:51 435.350 FM
BUGSAT 1 21 Oct 03:36:38 03:39:50 21° 300° (WNW) 03:43:01 437.445
KKS-1 21 Oct 03:37:37 03:40:24 17° 55° (NE) 03:43:12 437.445
MOZHAYETS 4 21 Oct 03:48:18 03:52:48 48° 261° (W) 03:57:18
RS-15 21 Oct 03:58:55 04:11:05 57° 333° (NNW) 04:23:00 29.354- 29.394
CUBESAT XI-V 21 Oct 04:00:20 04:04:54 61° 71° (ENE) 04:09:27 437.345
STARS 21 Oct 04:09:31 04:12:02 15° 54° (NE) 04:14:33 437.465
Oscar 19 21 Oct 04:19:18 04:23:26 25° 302° (WNW) 04:27:33 437.125/150
ITUPSAT 1 21 Oct 04:22:06 04:26:16 29° 266° (W) 04:30:28 437.325
M-CUBED/EXP-1 PRIME 21 Oct 04:28:16 04:30:49 19° 304° (NW) 04:33:27 437.505
BEESAT 21 Oct 04:38:02 04:41:41 21° 269° (W) 04:45:22 436.000
O/OREOS (USA 219) 21 Oct 04:44:01 04:47:25 20° 40° (NE) 04:50:48 437.305
ITAMSAT 1 21 Oct 04:52:00 04:57:15 68° 104° (ESE) 05:02:28 435.822/435.867
Gurwin Techsat 1B 21 Oct 04:54:27 04:58:19 21° 306° (NW) 05:02:09 435.225
NO-84 21 Oct 04:59:21 05:03:38 72° 153° (SSE) 05:07:46 435.350 FM
AO-7 21 Oct 05:11:10 05:19:32 85° 110° (ESE) 05:27:53 .
KKS-1 21 Oct 05:11:56 05:16:23 84° 255° (WSW) 05:20:53 437.445
DOVE 4 21 Oct 05:27:22 05:31:37 28° 93° (E) 05:36:00 437.250
CUBESAT XI-V 21 Oct 05:39:16 05:42:40 20° 270° (W) 05:46:06 437.345
STARS 21 Oct 05:43:19 05:47:43 87° 80° (E) 05:52:11 437.465
XW-2F 21 Oct 06:06:22 06:08:01 12° 88° (E) 06:09:40 145.980 - 146.000
LilacSat-2 21 Oct 06:12:01 06:14:28 16° 90° (E) 06:16:54 437.200
RS-15 21 Oct 06:14:43 06:26:26 46° 5° (N) 06:37:43 29.354- 29.394
NUDT-PHONESAT 21 Oct 06:17:07 06:18:41 12° 88° (E) 06:20:14 437.300
XW-2D 21 Oct 06:18:23 06:21:02 18° 91° (E) 06:23:40 145.860 - 145.880
O/OREOS (USA 219) 21 Oct 06:22:50 06:27:30 89° 248° (WSW) 06:32:05 437.305
SO-50 21 Oct 06:24:00 06:26:26 15° 111° (ESE) 06:28:53 436.795
HO-68 21 Oct 06:30:17 06:33:47 14° 81° (E) 06:37:17 435.675
XW-2B 21 Oct 06:31:33 06:34:38 23° 93° (E) 06:37:41 145.730 - 145.750
ITAMSAT 1 21 Oct 06:32:08 06:36:18 25° 303° (WNW) 06:40:28 435.822/435.867
NO-84 21 Oct 06:37:01 06:41:12 59° 353° (N) 06:45:11 435.350 FM
STRAND 1 21 Oct 06:40:09 06:44:56 41° 64° (ENE) 06:49:46 437.568
KKS-1 21 Oct 06:51:55 06:53:40 12° 274° (W) 06:55:25 437.445
XW-2C 21 Oct 06:54:31 06:58:05 40° 98° (E) 07:01:38 145.795 - 145.815
FO-29 21 Oct 06:59:53 07:03:18 17° 47° (NE) 07:06:53 435.910
AO-7 21 Oct 07:04:31 07:11:35 33° 313° (NW) 07:18:38 .
CUTE-I 21 Oct 07:04:37 07:09:46 44° 98° (E) 07:14:52 437.470
DOVE 4 21 Oct 07:04:45 07:09:29 51° 291° (WNW) 07:14:28 437.250
STARS 21 Oct 07:22:34 07:24:43 13° 273° (W) 07:26:53 437.465
CUBEBUG 2 21 Oct 07:26:37 07:29:41 17° 87° (E) 07:32:42 437.445
KAITUO 1B 21 Oct 07:36:03 07:39:46 87° 104° (ESE) 07:43:27 145.475/437.950
XW-2F 21 Oct 07:38:52 07:42:36 70° 286° (WNW) 07:46:18 145.980 - 146.000
XW-2A 21 Oct 07:42:29 07:43:12 11° 87° (E) 07:43:56 145.665 - 145.685
LilacSat-2 21 Oct 07:45:22 07:49:04 53° 288° (WNW) 07:52:44 437.200
NUDT-PHONESAT 21 Oct 07:49:20 07:53:01 70° 286° (WNW) 07:56:38 437.300
XW-2D 21 Oct 07:51:51 07:55:28 47° 289° (WNW) 07:59:03 145.860 - 145.880
CUTE 1.7 + AOD 2 21 Oct 07:55:33 07:59:36 44° 98° (E) 08:03:37 437.475
SEEDS 21 Oct 08:01:39 08:05:26 33° 96° (E) 08:09:13 437.485
SO-50 21 Oct 08:01:42 08:06:11 82° 132° (SE) 08:10:44 436.795
UWE-3 21 Oct 08:03:10 08:06:42 22° 90° (E) 08:10:08 435.000/436.395/437.385
O/OREOS (USA 219) 21 Oct 08:03:51 08:06:12 14° 262° (W) 08:08:31 437.305
XW-2B 21 Oct 08:05:27 08:08:55 36° 292° (WNW) 08:12:21 145.730 - 145.750
NO-84 21 Oct 08:14:50 08:18:57 68° 13° (NNE) 08:22:47 435.350 FM
UNISAT 6 21 Oct 08:15:14 08:18:03 16° 54° (NE) 08:20:52 437.425
HO-68 21 Oct 08:15:52 08:23:03 62° 103° (ESE) 08:30:10 435.675
Oscar 11 21 Oct 08:17:24 08:18:01 10° 84° (E) 08:18:38 .
STRAND 1 21 Oct 08:19:28 08:24:11 36° 264° (W) 08:28:57 437.568
AAUSAT CUBESAT 2 21 Oct 08:23:50 08:27:22 26° 94° (E) 08:30:52 437.432
RS-15 21 Oct 08:29:06 08:41:18 69° 37° (NE) 08:52:49 29.354- 29.394
XW-2C 21 Oct 08:29:09 08:32:04 22° 297° (WNW) 08:34:59 145.795 - 145.815
TIGRISAT 21 Oct 08:29:18 08:32:33 19° 57° (ENE) 08:35:49 435.000
PCSat 21 Oct 08:35:53 08:40:55 40° 116° (ESE) 08:45:58 145.827
FO-29 21 Oct 08:42:04 08:47:22 74° 71° (ENE) 08:53:13 435.910
CUTE-I 21 Oct 08:44:52 08:49:45 37° 298° (WNW) 08:54:38 437.470
DOVE 4 21 Oct 08:45:06 08:46:12 11° 310° (NW) 08:47:19 437.250
AO-73 21 Oct 08:52:47 08:56:42 31° 94° (E) 09:00:31 145.935
YUBILEINY 21 Oct 08:53:21 09:00:58 36° 83° (E) 09:08:38 435.215
AO-7 21 Oct 08:58:10 09:01:54 14° 339° (NNW) 09:05:38 .
CUBEBUG 2 21 Oct 09:02:09 09:06:52 73° 286° (WNW) 09:11:24 437.445
PRISM 21 Oct 09:08:15 09:11:07 19° 59° (ENE) 09:13:59 437.425
KAITUO 1B 21 Oct 09:11:44 09:13:11 12° 303° (WNW) 09:14:37 145.475/437.950
XW-2A 21 Oct 09:13:01 09:16:23 69° 285° (WNW) 09:19:41 145.665 - 145.685
ZACube-1 21 Oct 09:15:01 09:19:23 55° 100° (E) 09:23:37 437.345
